Regional Weather Roundup
Issued by NWS Jackson, KY

Home | Current Version | Previous Version | Text Only | Print | Product List | Glossary On
Versions: 1 2 3 4 5 6 7 8 9 10 11 12 13 14 15 16 17 18 19 20 21 22 23 24 25 26 27 28 29 30 31 32 33 34 35 36 37 38 39 40 41 42 43 44 45 46 47 48 49 50
000
ASUS43 KJKL 231211
RWRJKL

EAST KENTUCKY HOURLY WEATHER ROUNDUP
NATIONAL WEATHER SERVICE JACKSON KY
800 AM EDT THU OCT 23 2014

NOTE: "FAIR" INDICATES FEW OR NO CLOUDS BELOW 12,000 FEET WITH
NO SIGNIFICANT WEATHER AND/OR OBSTRUCTIONS TO VISIBILITY.

* THESE REPORTS ARE NOT UNDER NWS QUALITY CONTROL AND MAY NOT
  REPORT WEATHER SUCH AS PRECIPITATION AND FOG.

KYZ079-080-083-085-087-088-110-112-115-119-120-231300
...EASTERN KENTUCKY...

CITY           SKY/WX    TMP DP  RH WIND       PRES   REMARKS
JACKSON        CLOUDY    45  39  79 CALM      30.22S
6HR MIN TEMP:  45; 6HR MAX TEMP:  47;

LONDON         CLOUDY    48  39  71 NE7       30.24S
6HR MIN TEMP:  48; 6HR MAX TEMP:  49;

SOMERSET*      CLOUDY    46  37  71 NE5       30.25F
MONTICELLO*    CLOUDY    46  42  86 CALM      30.25S
6HR MIN TEMP:  36; 6HR MAX TEMP:  46;

MIDDLESBORO*   CLOUDY    47  38  71 NE5       30.24R
6HR MIN TEMP:  47; 6HR MAX TEMP:  48;

HARLAN APT*    CLOUDY    45  36  70 NE3       30.22R
HAZARD APT*    CLOUDY    45  43  93 CALM      30.23S
BLACK MTN*       N/A     30  30 100 N7          N/A  WCI  23
PIKEVILLE APT* CLOUDY    45  39  81 NW3       30.22R
BIG SANDY*     CLOUDY    46  41  84 CALM      30.22S
6HR MIN TEMP:  45; 6HR MAX TEMP:  47;

MOREHEAD APT*  CLOUDY    45  41  87 NW3       30.26R
$$

KYZ035-036-041-042-044-050-067-078-099-231300
...CENTRAL KENTUCKY...

CITY           SKY/WX    TMP DP  RH WIND       PRES   REMARKS
MT STERLING*   CLOUDY    45  43  93 CALM      30.25F
FLEMING/MASON* PTCLDY    41  39  93 W3        30.25S
DANVILLE*      MOCLDY    43  37  81 E3        30.25F
RICHMOND*      CLOUDY    46  39  76 E3        30.25S
LEXINGTON      CLOUDY    48  39  71 E6        30.25S
6HR MIN TEMP:  48; 6HR MAX TEMP:  51;

FRANKFORT      CLEAR     40  37  89 CALM      30.24F
6HR MIN TEMP:  40; 6HR MAX TEMP:  49;

$$

KYZ091>093-OHZ055-061-077-WVZ005-015-034-035-042-231300
...SOUTHERN OHIO/WEST VIRGINIA...

CITY           SKY/WX    TMP DP  RH WIND       PRES   REMARKS
COVINGTON      CLEAR     39  37  92 CALM      30.25S FOG
COLUMBUS       FOG       41  39  93 N5        30.22S VSB 1
DAYTON         FOG       38  37  97 CALM      30.25F VSB 1
WILMINGTON     CLEAR     40  37  89 NW5       30.24S FOG
HUNTINGTON     CLOUDY    47  41  80 CALM      30.21S
CHARLESTON     CLOUDY    47  41  80 CALM      30.20R
PINEVILLE*     CLOUDY    46  46  99 MISG      30.23S
BECKLEY        CLOUDY    42  39  89 NW10      30.15F
BLUEFIELD      CLOUDY    42  37  82 W5        30.15F
$$

VAZ002-007-008-TNZ017-027-036-066-071-231300
...SOUTHWEST VIRGINIA/EAST TENNESSEE...

CITY           SKY/WX    TMP DP  RH WIND       PRES   REMARKS
WISE*          CLOUDY    41  39  93 N6        30.20S
JONESVILLE*    CLOUDY    46  41  81 CALM      30.23S
ABINGDON*      CLOUDY    46  40  78 CALM      30.19R
BRISTOL        CLOUDY    47  37  68 N6        30.21R
KNOXVILLE      PTCLDY    41  38  89 E3        30.20S
OAK RIDGE      PTCLDY    44  40  85 CALM      30.22S
CROSSVILLE     CLEAR     37  33  85 CALM      30.21R
NASHVILLE      PTCLDY    42  40  92 CALM      30.23S
$$

...KEY TO REMARKS...
VSB - VISIBILITY IN MILES
WCI - WIND CHILL INDEX
HX  - HEAT INDEX

$$



USA.gov is the U.S. government's official web portal to all federal, state and local government web resources and services.